Location: Mauries
(43.6188°N, 0.3322°W)
Time: 18:28:51
(UTC+00:00)

CUBEBUG 2 - Pass Details

Date: 19 May 2026
Orbit: 545 x 628 km, 97.9° (Epoch: 10 June)

Event Time Altitude Azimuth Distance (km) Brightness Sun altitude
Rises 03:27:00 0° 358° (N) 2,724 ? -10.6°
Reaches altitude 10° 03:29:30 10° 343° (NNW) 1,824 ? -10.2°
Maximum altitude 03:32:29 21° 293° (WNW) 1,263 ? -9.8°
Enters shadow 03:35:04 12° 248° (WSW) 1,707 ? -9.5°
